Regional Weather Roundup
Issued by NWS

Home | Current Version | Previous Version | Graphics & Text | Print | Product List | Glossary On
Versions: 1 2 3 4 5 6 7 8 9 10 11 12 13 14 15 16 17 18 19 20 21 22 23 24 25 26 27 28 29 30 31 32 33 34 35 36 37 38 39 40 41 42 43 44 45 46 47 48 49 50
000
ASUS43 KLMK 251402
RWRKY
KENTUCKY REGIONAL WEATHER ROUNDUP
NATIONAL WEATHER SERVICE LOUISVILLE KY
900 AM EST TUE NOV 25 2014

NOTE "FAIR" INDICATES FEW OR NO CLOUDS BELOW 12,000 FEET
WITH NO SIGNIFICANT WEATHER AND/OR OBSTRUCTIONS TO VISIBILITY.

KYZ001>023-026-027-061>063-070>075-251500-
WESTERN AND SOUTH CENTRAL KENTUCKY

CITY           SKY/WX    TMP DP  RH WIND       PRES   REMARKS
PADUCAH        SUNNY     35  25  66 W6        30.16R WCI  30
HENDERSON      SUNNY     34  27  75 W7        30.14R WCI  28
OWENSBORO      SUNNY     33  30  89 SW6       30.14R WCI  27
HOPKINSVILLE   SUNNY     36  29  77 W3        30.16R
BOWLING GREEN  SUNNY     38  28  67 NW5       30.14S WCI  34
GLASGOW        NOT AVBL
$$

KYZ024-025-028>034-038-045-046-053-251500-
NORTH CENTRAL KENTUCKY

CITY           SKY/WX    TMP DP  RH WIND       PRES   REMARKS
LOUISVILLE/SDF SUNNY     37  29  72 W10       30.12R WCI  30
LOUISVILLE/LOU SUNNY     36  28  73 W10       30.12R WCI  28
FORT KNOX      SUNNY     34  29  80 W7        30.11R WCI  28
$$

KYZ035>037-039>044-047>052-055>060-089>105-251500-
NORTHEAST KENTUCKY

CITY           SKY/WX    TMP DP  RH WIND       PRES   REMARKS
LEXINGTON      SUNNY     37  31  78 W7        30.10R WCI  32
COVINGTON      MOSUNNY   35  25  66 SW6       30.07R WCI  30
FRANKFORT      SUNNY     35  30  82 SW6       30.10R WCI  30
$$

KYZ054-064>069-076>088-106>120-251500-
SOUTHEAST KENTUCKY

CITY           SKY/WX    TMP DP  RH WIND       PRES   REMARKS
JACKSON        SUNNY     42  30  62 VRB7      30.10R
LONDON         SUNNY     41  32  70 S6        30.12R
SOMERSET       NOT AVBL
MIDDLESBORO    SUNNY     32  31  96 CALM      30.15S
MONTICELLO     SUNNY     39  33  79 CALM      30.16R
$$



USA.gov is the U.S. government's official web portal to all federal, state and local government web resources and services.